Location: Düngen
(52.0952°N, 10.0219°E)
Time: 18:12:36
(UTC+00:00)

NOSS 2-2 (D) - Pass Details

Date: 11 March 2026
Orbit: 382 x 1696 km, 63.3° (Epoch: 20 April)

Event Time Altitude Azimuth Distance (km) Brightness Sun altitude
Rises 18:40:50 0° 237° (WSW) 2,455 7.4 -13.6°
Reaches altitude 10° 18:43:04 10° 243° (WSW) 1,493 6.3 -13.9°
Maximum altitude 18:46:09 50° 320° (NW) 505 3.5 -14.4°
Enters shadow 18:48:58 11° 38° (NE) 1,362 5.1 -14.8°
